1st Responders/1st Detectors/Storm Spotters Weather Summary for Clay County, KY

Forecast Maps


Reg. NEXRAD Animation


National Fire Danger: Day 1 & 2 Map

Current NWS Watch/Warnings

SPC Convective Day 1 Outlook


Day 2 Outlook

(Click images to enlarge|Page will refresh every 5 minutes)
UK Ag. Weather Center Desktop Severe Weather Service[HERE]
Clay County, KY Hazardous Weather Outlook Webcast
(9 AM to 9 PM Mon-Fri)
[Fast]
[Dial-up]


UKAWC 1st Detectors/1st Responders Precision Weather Forecast For CLAY County, Kentucky
(based on the NWS County Digital Forecast)

ISSUED AT 20:00 UTC ON THURSDAY SEP 20 2018
DAY THURSDAY
EDT 3HR 5P 6P 7P
MAX/MIN -- -- 90°
TEMP 88° 85° 81°
SKY COVER 20% 17% 15%
Clouds
DEW PT 67° 67° 68°
RH 49% 54% 64%
POP 12HR -- -- --
RAIN/SNOW (liq.equ) -- -- --
SNOWFALL -- -- --
WIND SPEED(MPH) 2 2 2
WIND Gust(MPH) 6 6 6
WIND DIR S S S
DEW -- -- --
HeatIndex 92 89 85
Rain Showers -- -- --
Thunder Storm -- -- --
WIND CHILL -- -- --
SPRAY COND
DRY COND
LIVESTOCK HEATSTRESS 79.81 78.37 76.60



DAY FRIDAY SATURDAY SUNDAY MONDAY TUESDAY WEDNESDAY
EDT 6HR 8P 9P 10P 11P MIDN 1A 2A 3A 4A 5A 6A 7A 8A 9A 10A 11A NOON 1P 2P 3P 4P 5P 6P 7P 8P 9P 10P 11P MIDN 1A 2A 3A 4A 5A 8A 11A 2P 5P 8P 2A 8A 2P 8P 2A 8A 2P 8P 2A 8A 2P 8P 2A 8A 2P 8P
MAX/MIN -- -- -- -- -- -- -- -- -- -- -- -- 67° -- -- -- -- -- -- -- -- -- -- 86° -- -- -- -- -- -- -- -- -- -- 67° -- -- 76° -- -- 63° 72° -- -- 63° 79° -- -- 63° 76° -- -- 63° 74° --
TEMP 79° 76° 74° 74° 72° 72° 72° 72° 72° 72° 70° 67° 67° 70° 74° 79° 81° 83° 85° 86° 86° 85° 81° 77° 76° 74° 72° 70° 70° 70° 70° 70° 70° 68° 67° 72° 76° 74° 68° 65° 63° 72° 65° 65° 65° 79° 70° 65° 65° 76° 70° 67° 63° 74° 67°
SKY COVER 13% 14% 15% 15% 21% 26% 32% 29% 26% 23% 19% 16% 12% 15% 14% 14% 18% 27% 31% 33% 38% 41% 40% 39% 38% 40% 44% 46% 50% 57% 61% 66% 76% 82% 86% 88% 86% 88% 89% 86% 90% 91% 86% 82% 81% 62% 72% 67% 76% 77% 67% 74% 67% 86% 83%
Clouds
DEW PT 70° 68° 68° 68° 68° 68° 68° 67° 67° 67° 67° 67° 67° 67° 67° 67° 67° 67° 67° 67° 67° 67° 67° 67° 68° 68° 67° 67° 67° 67° 67° 67° 67° 67° 65° 67° 67° 65° 65° 63° 63° 65° 63° 63° 63° 65° 65° 63° 63° 65° 67° 65° 63° 67° 63°
RH 73% 79% 81% 84% 87% 89% 90% 87% 87% 87% 89% 96% 97% 90% 81% 69% 62% 56% 52% 51% 51% 54% 62% 71% 79% 84% 87% 90% 89% 90% 92% 93% 89% 93% 97% 84% 74% 73% 87% 96% 99% 76% 92% 96% 93% 61% 87% 92% 92% 68% 87% 93% 100% 78% 90%
POP 12HR 5% -- -- -- -- -- -- -- -- -- -- -- 2% -- -- -- -- -- -- -- -- -- -- -- 24% -- -- -- -- -- -- -- -- -- 51% -- -- -- 62% -- 57% -- 67% -- 39% -- 28% -- 37% -- 49% -- 49% -- 65%
RAIN/SNOW (liq.equ) 0.00in -- -- -- -- -- 0.00in -- -- -- -- -- 0.00in -- -- -- -- -- 0.00in -- -- -- -- -- 0.01in -- -- -- -- -- 0.03in -- -- -- 0.05in -- 0.08in -- 0.24in -- -- -- -- -- -- -- -- -- -- -- -- -- -- -- --
SNOWFALL 0in -- -- -- -- -- 0in -- -- -- -- -- 0in -- -- -- -- -- 0in -- -- -- -- -- 0in -- -- -- -- -- 0in -- -- -- 0in -- 0in -- 0in -- -- -- -- -- -- -- -- -- -- -- -- -- -- -- --
WIND SPEED(MPH) 2 2 2 2 2 5 5 5 6 6 6 6 6 7 7 8 8 8 7 7 6 6 6 5 5 5 2 2 2 1 1 1 2 2 1 1 2 2 2 2 2 2 2 1 2 6 5 5 5 6 5 5 5 6 6
WIND DIR S S S S S S S S S S S S S S S SW SW SW SW SW SW SW SW SW SW SW SW S SW SW SW SW SW SW N NE N N NE NE NE NE NE E SE S SE SE S S S S S SW W
HeatIndex 79 76 74 74 72 72 72 72 72 72 70 67 67 70 74 79 85 86 88 89 89 89 85 77 76 74 72 70 70 70 70 70 70 68 67 72 76 74 68 65 63 72 65 65 65 79 70 65 65 76 70 67 63 74 67
Rain Showers -- -- -- -- -- -- -- -- -- -- -- -- -- -- -- -- -- -- -- Slight Chance Slight Chance Slight Chance Slight Chance Slight Chance Chance Chance Chance Chance Chance Chance Chance Chance Chance Chance Chance Chance Chance Likely Likely Chance Likely Likely Chance Chance Chance Slight Chance Chance Chance Chance Chance Chance Chance Chance Likely Likely
Thunder Storm -- -- -- -- -- -- -- -- -- -- -- -- -- -- -- -- -- -- -- -- -- -- -- -- -- -- -- -- -- -- -- -- -- -- -- Slight Chance Chance Chance Chance -- -- -- -- -- -- Slight Chance Slight Chance -- -- -- -- -- -- Slight Chance --
WIND CHILL -- -- -- -- -- -- -- -- -- -- -- -- -- -- -- -- -- -- -- -- -- -- -- -- -- -- -- -- -- -- -- -- -- -- -- -- -- -- -- -- -- -- -- -- -- -- -- -- -- -- -- -- -- -- --
SPRAY COND
DRY COND
LIVESTOCK HEATSTRESS 76.00 74.01 72.41 72.66 71.06 71.20 71.27 71.06 71.06 71.06 69.32 66.82 66.86 69.38 72.41 75.56 76.36 77.14 78.08 78.67 78.67 78.37 76.36 74.10 74.01 72.66 71.06 69.38 69.32 69.38 69.51 69.57 69.32 67.65 66.86 70.84 73.54 71.74 67.34 64.86 62.98 70.26 64.73 64.86 64.76 74.67 69.20 64.73 64.73 72.97 69.20 66.68 63.00 72.16 66.55

Click on individual weather variable above in left-hand column (ie., TEMP, RH, QPF 12HR) to view state forecast maps






NWS 48 Hr. Forecast Maps,

Regional Hourly Observations For CLAY County, Kentucky
Issued at 400 PM EDT THU SEP 20 2018
SOUTHEAST KENTUCKY
  
CITY           SKY/WX    TMP DP  RH WIND       PRES   REMARKS
JACKSON        FAIR      88  68  51 CALM      30.11F HX  91           
LONDON         FAIR      87  68  52 S5        30.10F HX  90           
SOMERSET       NOT AVBL                                               
MIDDLESBORO    FAIR      89  67  48 S5        30.11F HX  92           
MONTICELLO     FAIR      93  69  45 N9G20     30.09F HX  98           


Current NOWCAST not available:
Nowcasts are not issued routinely during fair weather. Only when
precipitation or other significant weather is occuring in this county will these
forecasts be issued. Currently, there is no short term forecast in effect.


Fire Weather Forecast For CLAY County, KY
Provided by the National Weather Service:

Issued at: Thu Sep 20 16:05:01 EDT 2018

Clay City, Stanton, Frenchburg, Brodhead, Mount Vernon, McKee, 
Annville, Burnside, Somerset, London, Monticello, Stearns, 
Whitley City, Corbin, Williamsburg, Barbourville, Middlesboro, 
Pineville, Cumberland, Harlan, Sandy Hook, West Liberty, 
Paintsville, Campton, Salyersville, Prestonsburg, Wheelwright, 
Beattyville, Jackson, Hindman, Pippa Passes, Booneville, Hazard, 
Manchester, Hyden, Jenkins, Whitesburg, Inez, Coal Run, 
Elkhorn City, Pikeville, and South Williamson
500 AM EDT Thu Sep 20 2018

                      Today        Tonight      Fri          

Cloud Cover           MClear       MClear       MClear       
Chance precip (%)     0            0            30           
Precip type           None         None         showers      
Temp (24H TREND)      87-90 (+2)   64-71 (+4)   85-88        
Rh % (24H TREND)      46-51 (+1)   84-100 (+1)  48-53        
20ftwnd-AM(mph)       Lgt/Var                   SW 5-9 G15   
20ftwnd-PM(mph)       Lgt/Var      Lgt/Var      SW 4-8 G15   
Precip duration                                 1            
Precip begin                                                 
Precip end                                                   
Precip amount         0.00         0.00         0.01         
LAL                   1            1            2            
Haines Index (MID)    3                         3            
Mixing hgt(ft-AGL)    6100                      7100         
Transport wnd (mph)   SW  3                     SW 17        
Vent rate (kt-ft)     18294                     109150       
ADI Early             19 Gen Poor  2 Very Poor  76 Good      
ADI Late              28 Fair      5 Very Poor  82 Good      
Max LVORI Early       8            6            6            
Max LVORI Late        3            7            3            

REMARKS...RANGES OF MIN T EXCEEDING 8 DEGREES & RANGES OF MAX RH        
EXCEEDING 10% INDICATE THE LIKELIHOOD OF THERMAL BELTS. ADI IS        
ATMOSPHERIC DISPERSION INDEX BY LAVDAS. DISPERSION INDEX IS        
MAGNITUDE OF VENT RATE DIVIDED BY 1000.


SPC's Fire Weather Web Tool (Excellent!), SPC's Fire Weather Outlooks, NWS Fire Weather WEB, Fire Danger Class Map,
Keetch-Byram Drought Index, ROMAN Web, Haines Index ,
WFAS's 10-hr Dead Fuel Moist., WFAS's 100-hr Dead Fuel Moist., Probablity of Ignition, Visual blackness Map, Palmer Drought Index, HPC's Rainfall Forecast Maps


Hazardous Weather Outlook For CLAY County, Kentucky
423 PM EDT Thu Sep 20 2018

 DAY ONE  Tonight.

No hazardous weather is expected at this time.

 DAYS TWO THROUGH SEVEN  Friday through Wednesday.

Thunderstorms will be possible at times Friday through Wednesday,
mainly during the afternoon and early evening hours. If
thunderstorms occur on Friday afternoon or Friday evening, a few 
of them may contain strong winds gusts.

 SPOTTER INFORMATION STATEMENT  

Spotter activation is not anticipated.

Latest CLAY County, Kentucky Watches, Warnings and Advisories.
Additional Drought Info.: UKAWC Drought Page, Kentucky Drought Watch


7-Day Forecast For CLAY County, KY

TONIGHT
Partly cloudy. Patchy valley fog late. Lows in the upper 60s. Light winds.

FRIDAY
Warm. Mostly sunny. Patchy valley fog early. A 20 percent chance of showers and thunderstorms in the afternoon. Highs in the upper 80s. Light winds.

FRIDAY NIGHT
Partly cloudy in the evening then becoming mostly cloudy. A slight chance of thunderstorms in the evening. A chance of showers through the night. Lows in the upper 60s. Light winds. Chance of rain 50 percent.

SATURDAY
Cloudy. A chance of showers and a slight chance of thunderstorms in the morning, then showers likely and a chance of thunderstorms in the afternoon. Highs in the upper 70s. Light winds. Chance of rain 60 percent.

SATURDAY NIGHT
Cloudy. Showers likely and a chance of thunderstorms in the evening, then showers likely and a slight chance of thunderstorms late. Patchy valley fog late. Lows in the lower 60s. Light winds. Chance of rain 60 percent.

SUNDAY
Cloudy with showers likely and a slight chance of thunderstorms. Highs in the lower 70s. Chance of rain 60 percent.

SUNDAY NIGHT
Cloudy with a 40 percent chance of showers. Patchy valley fog. Lows in the lower 60s.

MONDAY
Mostly cloudy with a 40 percent chance of showers and thunderstorms. Highs in the upper 70s.

MONDAY NIGHT
Mostly cloudy with a 20 percent chance of showers and thunderstorms. Lows in the mid 60s.

TUESDAY
Partly sunny with a 30 percent chance of showers and thunderstorms. Highs around 80.

TUESDAY NIGHT
Mostly cloudy with a chance of showers and a slight chance of thunderstorms. Lows in the mid 60s. Chance of rain 50 percent.

WEDNESDAY
Mostly cloudy with showers likely and a slight chance of thunderstorms. Highs in the mid 70s. Chance of rain 60 percent.

WEDNESDAY NIGHT
Mostly cloudy with a 50 percent chance of showers. Lows in the upper 50s.

THURSDAY
Partly sunny with a 20 percent chance of showers. Highs in the mid 70s.

Ag Weather Center, Department of Biosystems & Agricultural Engineering, University of Kentucky